Wind_Speed
36 31 25 21 21 25 26 26 20 17 17 19 22 24 23 24 24 23 21 21 21 24 21 25 28 30 28 26 26 28 26 30 35 33 32 30 29 28 28 27 26 26 24
28 25 24 24 23 23 25 28 25 19 19 19 18 19 18 18 20 21 22 21 21 24 25 26 29 31 30 29 30 37 37 33 35 36 32 29 31 32 33 31 31 29 26
21 19 18 22 20 22 24 30 26 21 19 18 19 19 19 20 21 20 21 20 21 24 29 30 35 32 31 37 40 38 40 40 37 44 35 15 18 24 34 37 35 31 30
17 19 17 19 21 22 27 28 25 23 20 19 19 20 22 24 23 22 21 20 20 23 27 31 34 42 39 38 40 43 44 43 44 45 42 36 20 13 15 25 33 33 32
16 6 3 3 9 17 19 20 19 19 18 18 18 20 22 23 25 25 25 26 24 23 26 32 37 37 40 44 43 40 43 42 43 44 42 41 42 34 20 15 21 29 32
8 12 11 9 11 13 16 15 16 14 14 11 12 14 17 21 24 25 25 27 29 32 31 31 33 39 39 38 45 46 42 44 46 45 47 42 42 44 36 28 25 25 25
14 8 8 8 8 9 10 10 6 4 5 7 10 11 14 17 17 19 22 19 19 22 23 27 33 35 39 37 39 40 35 42 43 42 44 41 42 43 42 43 37 30 27
10 12 11 10 8 8 6 9 9 7 4 2 4 6 11 14 17 16 15 17 15 14 22 28 33 30 30 32 31 34 37 38 39 40 39 40 40 38 40 41 33 29 32
16 16 14 13 14 10 11 9 11 9 7 6 2 2 2 4 3 2 4 4 6 8 8 8 10 11 24 27 27 36 43 39 36 35 32 32 33 32 32 33 33 31 28
17 18 19 17 18 17 16 15 15 15 12 12 11 10 8 6 7 9 10 9 9 9 9 10 10 11 7 7 14 19 35 39 40 52 45 38 39 38 38 41 38 38 40
17 17 18 19 19 20 19 20 18 18 18 16 15 15 14 14 15 15 16 16 15 17 19 16 13 13 14 15 15 12 14 20 28 38 46 49 57 48 45 41 41 38 36
19 21 22 20 21 21 20 18 15 18 15 13 12 8 10 11 12 15 16 17 14 12 10 12 13 13 14 14 16 18 16 20 23 25 26 30 40 44 40 40 42 31 31
11 14 14 16 16 16 16 16 16 12 10 9 8 8 9 10 11 11 10 12 13 13 14 13 13 13 14 15 15 17 21 22 15 18 30 30 33 35 33 29 31 30 30
1 1 3 5 6 7 8 8 7 8 9 9 10 12 13 14 14 15 15 17 18 17 16 17 17 17 17 17 18 20 21 22 24 27 31 27 21 32 28 31 31 28 31
2 0 2 4 5 5 6 8 9 10 11 11 13 14 15 16 17 18 18 19 20 21 21 21 21 20 20 20 20 22 24 25 26 26 28 29 31 34 27 26 27 30 33
3 2 1 2 3 5 6 8 10 11 13 15 15 16 17 18 19 20 22 23 23 22 22 22 23 22 22 23 23 25 27 27 28 30 29 28 30 31 31 34 31 31 33
5 4 3 2 4 6 7 10 12 14 15 16 18 19 20 22 23 24 25 26 27 28 28 28 29 28 25 24 25 26 27 28 29 29 31 33 29 29 32 35 34 35 30
8 5 4 4 6 9 10 12 13 15 16 16 18 19 21 22 23 24 25 27 27 27 28 27 27 27 26 26 26 26 26 27 28 28 28 30 32 30 28 32 35 36 34
7 5 4 6 8 9 11 12 13 14 16 18 19 20 22 23 25 27 28 29 31 32 32 30 29 28 28 28 28 28 28 29 29 27 28 25 27 29 29 33 33 34 35
7 6 7 8 10 10 10 11 14 16 18 19 20 20 22 25 27 28 30 31 32 32 31 31 30 29 28 27 27 27 28 29 29 29 26 27 23 24 26 31 32 34 33
8 8 8 8 8 9 11 14 17 18 19 21 23 25 27 29 30 32 33 34 34 33 32 31 29 27 25 25 24 24 25 27 28 25 25 27 26 26 25 27 29 32 31
8 8 7 7 9 12 16 18 19 20 21 24 27 30 31 32 32 33 33 33 32 31 28 26 27 26 25 25 26 25 21 21 20 23 25 26 29 27 30 26 26 27 28
8 9 9 10 12 16 18 20 21 23 26 27 28 28 29 29 29 29 28 28 27 26 25 24 23 26 25 24 21 22 19 17 19 23 23 25 30 30 27 31 27 22 28
10 11 12 14 16 19 20 22 23 25 26 27 27 25 25 25 24 23 24 24 24 23 23 21 22 25 25 24 22 21 22 24 24 25 26 26 24 31 27 25 27 23 28
11 13 17 19 21 21 22 22 23 24 24 23 23 23 23 24 25 25 25 25 23 22 23 24 25 25 27 25 20 20 24 25 26 26 27 26 25 24 23 23 22 23 25
13 15 18 19 20 20 19 18 19 19 20 21 23 24 25 26 26 27 28 25 23 21 21 21 22 24 21 19 20 21 21 24 24 25 26 26 22 21 21 22 21 20 23
Wind_Direction
272 264 256 257 263 244 227 227 228 223 214 217 223 228 235 249 254 256 248 255 267 256 261 244 240 238 242 243 226 218 236 237 237 245 247 245 244 245 244 247 245 243 244
273 271 254 264 255 248 221 218 217 225 220 226 240 244 259 265 262 255 253 255 259 257 257 246 242 248 249 235 223 224 224 239 249 244 245 257 252 245 243 243 243 244 243
282 272 264 268 260 225 213 207 211 223 228 229 232 241 255 260 260 257 260 267 265 262 255 251 250 251 249 244 239 238 232 232 230 244 231 232 247 254 250 247 243 242 237
290 282 277 263 248 217 199 197 203 219 227 230 230 242 253 260 261 262 266 265 261 267 262 257 258 258 258 249 249 248 242 240 238 237 231 229 239 235 250 244 237 236 239
7 29 95 123 171 188 184 195 203 212 221 229 239 247 254 257 260 269 266 263 259 266 267 260 259 256 261 256 250 248 243 246 242 241 236 233 237 242 246 249 238 236 236
9 22 112 141 100 156 177 190 197 201 217 226 238 251 260 263 267 271 274 270 268 274 274 268 264 256 268 262 268 244 239 246 248 239 242 238 238 236 237 242 244 251 246
38 37 47 96 114 106 128 162 150 173 197 224 247 262 270 273 280 273 267 270 280 278 272 276 272 267 262 264 255 242 239 243 245 239 242 248 244 246 248 248 255 261 258
59 52 62 77 85 113 127 133 133 156 172 231 293 283 290 284 269 258 257 271 275 278 279 279 272 266 263 257 264 236 234 241 246 248 250 250 251 250 253 254 256 262 264
60 68 73 75 84 86 107 114 105 105 103 104 181 254 309 10 123 195 219 225 267 286 289 290 282 292 259 252 263 260 234 236 243 242 242 245 246 247 251 252 256 260 267
55 62 72 77 83 83 90 88 87 84 78 71 64 50 37 5 27 21 3 339 337 313 309 297 288 274 300 293 268 268 252 236 244 245 253 251 255 266 266 255 265 260 262
51 57 64 69 74 78 77 76 75 72 59 51 45 34 19 11 13 11 9 351 342 338 337 336 327 287 290 281 284 296 290 272 255 243 243 248 250 264 264 263 264 262 261
64 61 59 54 59 59 60 58 58 53 48 38 34 5 0 2 5 348 344 345 347 345 333 320 320 311 307 295 278 277 276 267 269 264 259 252 248 254 257 252 254 252 264
59 63 63 60 56 56 63 64 60 52 39 38 18 8 7 5 3 359 349 341 337 338 338 330 319 310 304 298 289 279 274 273 282 273 263 261 259 261 267 262 266 265 264
319 25 30 39 45 44 49 55 50 37 32 25 11 4 2 1 356 352 349 342 343 340 336 332 330 321 312 303 295 289 284 277 271 266 264 267 275 263 256 264 268 264 251
178 177 39 47 42 36 35 36 28 20 13 5 359 356 354 348 345 341 340 336 336 334 332 327 325 325 320 316 307 298 292 286 279 275 273 267 261 260 268 274 270 268 269
209 212 348 11 15 18 13 8 3 357 353 347 345 344 341 340 337 335 334 332 330 327 326 325 324 322 320 316 314 309 302 296 290 285 278 273 268 262 258 259 257 263 265
225 239 277 315 344 351 352 349 348 346 340 338 336 334 332 330 327 324 323 322 322 321 320 321 320 318 317 314 310 308 305 302 300 295 287 279 274 267 262 259 257 256 254
221 245 267 308 330 336 334 333 330 326 323 321 320 320 320 320 320 320 321 322 320 319 320 320 318 314 311 308 306 303 300 296 293 292 291 288 283 276 271 264 260 256 256
223 237 273 299 307 309 310 310 313 316 319 321 326 329 330 330 331 331 331 330 328 327 326 324 320 315 315 313 311 306 300 297 294 292 286 284 283 278 274 272 269 262 255
231 255 273 287 292 295 301 316 323 324 324 326 328 329 330 330 329 327 327 326 325 323 321 318 318 318 316 312 307 305 303 301 299 293 293 291 284 279 270 270 271 267 260
234 251 265 280 290 300 311 321 324 325 326 325 325 324 324 323 322 320 319 318 317 315 314 313 314 313 313 313 309 304 301 300 299 295 288 290 296 288 270 265 268 262 263
238 253 265 281 300 312 317 315 315 316 317 318 319 319 319 317 315 314 313 311 310 310 313 312 311 313 313 310 309 306 304 303 302 297 291 279 281 285 280 267 264 268 257
251 269 283 293 301 304 310 315 319 319 319 319 317 317 316 317 319 320 320 318 315 313 313 310 310 314 316 315 311 310 308 308 306 304 299 292 269 273 286 280 269 265 257
257 273 292 304 311 315 319 319 318 316 316 318 321 323 324 327 326 324 324 324 325 319 315 310 308 313 315 316 316 318 315 310 308 308 307 308 302 268 272 285 277 264 257
278 297 307 313 315 317 317 317 316 318 323 325 328 330 331 332 332 331 329 324 321 320 310 305 306 308 309 311 313 310 303 307 309 308 306 306 307 311 277 285 292 272 262
292 302 309 313 316 319 320 321 322 324 327 328 331 332 331 331 329 328 327 328 325 315 311 303 296 301 301 301 305 304 302 300 305 306 305 306 305 301 296 291 306 291 277
Height
1451 1453 1456 1457 1458 1459 1462 1465 1469 1471 1473 1476 1479 1481 1483 1486 1488 1490 1490 1492 1492 1493 1493 1497 1501 1503 1505 1506 1505 1509 1515 1518 1523 1523 1524 1523 1524 1523 1524 1526 1528 1530 1531
1446 1447 1449 1451 1451 1452 1455 1459 1464 1467 1469 1473 1476 1479 1481 1482 1484 1486 1487 1488 1488 1490 1491 1493 1496 1499 1502 1504 1504 1508 1509 1511 1516 1517 1520 1519 1518 1517 1517 1520 1522 1523 1525
1443 1442 1443 1445 1445 1445 1449 1454 1459 1462 1465 1468 1471 1475 1477 1478 1479 1483 1484 1484 1484 1486 1487 1489 1491 1493 1496 1497 1499 1502 1502 1502 1504 1509 1512 1513 1511 1513 1510 1513 1516 1517 1518
1441 1438 1437 1438 1439 1441 1444 1449 1455 1458 1463 1466 1467 1470 1472 1473 1475 1477 1478 1479 1479 1480 1482 1483 1484 1485 1487 1489 1491 1494 1496 1497 1496 1500 1503 1505 1508 1507 1507 1507 1508 1510 1512
1441 1439 1439 1439 1439 1441 1443 1448 1452 1456 1459 1462 1465 1466 1467 1469 1471 1471 1473 1473 1473 1475 1476 1477 1477 1478 1479 1480 1482 1484 1487 1489 1491 1492 1497 1499 1502 1504 1505 1502 1502 1504 1505
1446 1445 1441 1441 1441 1442 1444 1447 1450 1452 1456 1459 1462 1462 1462 1464 1466 1466 1467 1469 1469 1468 1469 1470 1470 1470 1471 1469 1469 1473 1476 1480 1482 1484 1489 1490 1493 1495 1498 1498 1498 1498 1500
1449 1446 1445 1444 1445 1445 1446 1447 1450 1453 1455 1458 1459 1459 1459 1462 1463 1463 1463 1463 1462 1461 1462 1462 1461 1461 1462 1462 1459 1460 1464 1470 1474 1477 1479 1483 1485 1488 1490 1493 1493 1492 1494
1451 1449 1448 1447 1447 1447 1449 1450 1451 1453 1454 1456 1456 1457 1458 1459 1459 1458 1458 1458 1457 1457 1455 1455 1454 1453 1454 1455 1455 1453 1457 1461 1465 1469 1471 1474 1477 1481 1483 1485 1486 1486 1487
1456 1454 1451 1450 1450 1450 1450 1451 1452 1452 1454 1455 1456 1458 1459 1457 1455 1455 1454 1453 1453 1452 1452 1450 1451 1448 1446 1447 1449 1447 1448 1453 1458 1462 1464 1465 1470 1472 1475 1474 1477 1478 1478
1461 1458 1455 1454 1453 1453 1452 1453 1453 1454 1456 1457 1457 1457 1457 1456 1454 1453 1452 1451 1449 1450 1449 1448 1447 1446 1446 1445 1444 1442 1441 1445 1449 1453 1456 1458 1462 1463 1466 1468 1467 1469 1470
1466 1463 1460 1459 1458 1457 1457 1457 1457 1458 1458 1460 1459 1458 1459 1457 1454 1453 1452 1452 1450 1448 1447 1445 1444 1444 1443 1442 1441 1441 1440 1440 1439 1443 1447 1448 1452 1455 1456 1456 1458 1459 1460
1469 1466 1464 1463 1462 1461 1461 1461 1461 1460 1462 1462 1459 1462 1461 1459 1457 1455 1454 1454 1451 1450 1448 1447 1445 1444 1441 1441 1439 1438 1437 1437 1437 1438 1439 1440 1443 1445 1446 1446 1447 1448 1450
1474 1473 1471 1469 1467 1466 1465 1465 1464 1465 1464 1463 1464 1463 1461 1458 1457 1456 1455 1455 1452 1449 1447 1445 1443 1443 1441 1438 1436 1435 1434 1433 1433 1432 1434 1434 1436 1436 1437 1436 1439 1440 1441
1476 1476 1474 1472 1471 1470 1470 1469 1468 1467 1466 1464 1463 1461 1459 1458 1457 1456 1452 1452 1450 1446 1444 1443 1440 1438 1437 1434 1431 1431 1430 1429 1427 1427 1426 1428 1427 1425 1427 1429 1430 1430 1430
1476 1476 1475 1474 1473 1472 1471 1469 1468 1467 1466 1464 1462 1460 1458 1457 1455 1453 1451 1450 1447 1444 1441 1439 1437 1434 1434 1430 1426 1426 1425 1423 1422 1421 1421 1421 1421 1422 1423 1424 1424 1425 1425
1476 1476 1475 1474 1473 1473 1471 1469 1467 1466 1464 1462 1460 1458 1456 1455 1453 1451 1448 1446 1444 1442 1440 1436 1434 1432 1429 1427 1424 1422 1421 1419 1416 1414 1413 1414 1414 1414 1414 1415 1416 1417 1418
1474 1474 1473 1473 1472 1471 1469 1468 1465 1464 1462 1460 1458 1456 1455 1452 1449 1447 1445 1441 1439 1437 1433 1430 1426 1425 1424 1421 1419 1416 1413 1412 1410 1408 1406 1405 1405 1406 1405 1406 1405 1406 1407
1471 1472 1472 1471 1470 1469 1467 1466 1464 1462 1460 1459 1457 1454 1452 1450 1448 1445 1441 1437 1435 1433 1428 1425 1422 1420 1418 1415 1412 1410 1407 1405 1404 1401 1399 1397 1396 1397 1397 1396 1396 1396 1398
1469 1470 1470 1469 1468 1467 1466 1465 1463 1462 1459 1457 1454 1451 1448 1444 1441 1437 1434 1432 1428 1424 1420 1418 1415 1413 1410 1408 1405 1403 1400 1398 1396 1393 1392 1390 1388 1389 1390 1388 1387 1388 1387
1467 1468 1468 1467 1466 1465 1464 1462 1460 1457 1455 1452 1449 1447 1444 1440 1437 1434 1430 1426 1422 1419 1416 1412 1410 1407 1404 1402 1400 1398 1395 1392 1389 1387 1384 1382 1381 1381 1381 1379 1380 1378 1380
1466 1466 1465 1464 1463 1461 1460 1458 1455 1452 1449 1446 1444 1442 1439 1436 1432 1428 1425 1421 1417 1414 1411 1407 1405 1403 1401 1398 1395 1393 1389 1385 1381 1379 1378 1376 1375 1374 1372 1371 1370 1370 1373
1463 1463 1462 1461 1459 1456 1454 1453 1451 1448 1446 1443 1439 1435 1432 1429 1426 1423 1419 1416 1412 1408 1405 1402 1399 1397 1395 1392 1389 1385 1383 1380 1377 1373 1370 1368 1367 1364 1363 1362 1360 1361 1362
1460 1460 1459 1458 1456 1454 1451 1448 1445 1442 1439 1436 1434 1431 1427 1423 1420 1415 1412 1409 1406 1402 1399 1396 1393 1391 1389 1387 1384 1380 1377 1375 1372 1369 1365 1362 1358 1357 1354 1354 1354 1355 1354
1455 1455 1454 1452 1451 1449 1446 1442 1439 1437 1435 1431 1428 1424 1421 1418 1415 1412 1409 1405 1401 1397 1394 1391 1388 1385 1382 1380 1378 1375 1373 1370 1367 1363 1359 1355 1352 1349 1348 1347 1346 1346 1345
1451 1450 1449 1447 1445 1444 1442 1439 1436 1432 1429 1426 1423 1420 1417 1414 1410 1406 1403 1399 1397 1393 1390 1386 1383 1380 1376 1374 1373 1372 1368 1365 1361 1358 1354 1350 1346 1342 1340 1340 1339 1338 1338
1447 1446 1445 1444 1442 1440 1438 1435 1432 1429 1426 1423 1420 1416 1412 1409 1405 1401 1396 1395 1391 1389 1385 1382 1379 1376 1373 1371 1368 1366 1363 1360 1357 1353 1349 1345 1342 1339 1336 1334 1332 1332 1331